Location: Gorze? G�rny
(49.8500°N, 19.5000°E)
Time: 04:07:20
(UTC+00:00)

Cosmos 1605 Rocket - Pass Details

Date: 13 May 2021
Orbit: 946 x 1004 km, 82.9° (Epoch: 23 June)

Event Time Altitude Azimuth Distance (km) Brightness Sun altitude
Rises 23:41:43 0° 347° (NNW) 3,675 8.1 -20.1°
Reaches altitude 10° 23:44:16 10° 342° (NNW) 2,732 7.1 -20.0°
Maximum altitude 23:50:18 52° 269° (W) 1,205 4.3 -19.7°
Enters shadow 23:52:54 33° 212° (SSW) 1,604 4.6 -19.6°
